Shelbyville, IN

12:12 AM EST on November 17, 2019 (GMT -0500)
Shelbyville Municipal

Weather History for KGEZ - September, 2019

Change the Weather History Date:

Friday, September 20, 2019

  Actual Average Record
Temperature  
Mean Temperature 77 °F 64 °F  
Max Temperature 88 °F 77 °F 93 °F (2018)
Min Temperature 65 °F 51 °F 39 °F (2003)
Degree Days  
Heating Degree Days 0 3  
Month to date heating degree days 0 28  
Since 1 July heating degree days 0 34  
Cooling Degree Days 12 2  
Month to date cooling degree days 158 77  
Year to date cooling degree days 1219 883  
Growing Degree Days 26 (Base 50)    
Moisture  
Dew Point 64 °F    
Average Humidity 68    
Maximum Humidity 93    
Minimum Humidity 42    
Precipitation  
Precipitation 0.00 in 0.10 in 0.94 in (2002)
Month to date precipitation 0.52 2.13  
Year to date precipitation 31.98 32.41  
Sea Level Pressure  
Sea Level Pressure 30.12 in    
Wind  
Wind Speed 4 mph (South)    
Max Wind Speed 10 mph    
Max Gust Speed 16 mph    
Visibility 10 miles    
Events      
T = Trace of Precipitation, MM = Missing Value Source: NWS Daily Summary

Daily Weather History Graph

Daily Weather History Graph

Search for Another Location

Airport or City:

Astronomy

Sep. 20, 2019 Rise Set
Actual Time 7:28 AM EDT 7:43 PM EDT
Civil Twilight 7:01 AM EDT 8:10 PM EDT
Nautical Twilight 6:30 AM EDT 8:42 PM EDT
Astronomical Twilight 5:58 AM EDT 9:14 PM EDT
Moon 11:34 PM EDT (9/20) 1:31 PM EDT (9/20)
Length of Visible Light 13h 08m
Length of Day
12h 15m
Waning Gibbous, 65% of the Moon is Illuminated
Sep 20
Waning Gibbous
Sep 21
Last Quarter
Sep 28
New
Oct 5
First Quarter
Oct 13
Full

Hourly Weather History & Observations

Time (EDT) Temp. Heat Index Dew Point Humidity Pressure Visibility Wind Dir Wind Speed Gust Speed Precip Events Conditions
12:53 AM 66.9 °F - 62.1 °F 84% 30.07 in 10.0 mi Calm Calm - N/A   Partly Cloudy
1:53 AM 66.0 °F - 62.1 °F 87% 30.07 in 10.0 mi SE 3.5 mph - N/A   Clear
2:53 AM 66.9 °F - 62.1 °F 84% 30.08 in 10.0 mi SSE 4.6 mph - N/A   Mostly Cloudy
3:53 AM 66.0 °F - 62.1 °F 87% 30.09 in 10.0 mi Calm Calm - N/A   Partly Cloudy
4:53 AM 64.9 °F - 61.0 °F 87% 30.09 in 9.0 mi SSE 5.8 mph - N/A   Scattered Clouds
5:53 AM 66.0 °F - 62.1 °F 87% 30.10 in 8.0 mi SSE 4.6 mph - N/A   Clear
6:53 AM 64.9 °F - 62.1 °F 90% 30.12 in 7.0 mi SE 3.5 mph - N/A   Partly Cloudy
7:53 AM 66.0 °F - 62.1 °F 87% 30.13 in 7.0 mi SE 4.6 mph - N/A   Scattered Clouds
8:53 AM 71.1 °F - 64.9 °F 81% 30.14 in 9.0 mi South 6.9 mph - N/A   Clear
9:53 AM 73.9 °F - 66.0 °F 76% 30.15 in 10.0 mi SSW 8.1 mph - N/A   Clear
10:53 AM 77.0 °F - 66.9 °F 71% 30.16 in 10.0 mi SSW 9.2 mph - N/A   Clear
11:53 AM 80.1 °F 82.3 °F 66.9 °F 64% 30.16 in 10.0 mi Variable 4.6 mph - N/A   Clear
12:53 PM 82.9 °F 85.8 °F 68.0 °F 60% 30.14 in 10.0 mi Variable 3.5 mph - N/A   Clear
1:53 PM 84.9 °F 87.1 °F 66.0 °F 53% 30.13 in 10.0 mi Calm Calm - N/A   Partly Cloudy
2:53 PM 87.1 °F 88.3 °F 64.0 °F 46% 30.12 in 10.0 mi Variable 4.6 mph - N/A   Partly Cloudy
3:53 PM 87.1 °F 88.3 °F 64.0 °F 46% 30.11 in 10.0 mi Variable 3.5 mph - N/A   Partly Cloudy
4:53 PM 87.1 °F 87.8 °F 63.0 °F 44% 30.11 in 10.0 mi SW 5.8 mph - N/A   Clear
5:53 PM 86.0 °F 86.1 °F 61.0 °F 43% 30.11 in 10.0 mi SW 4.6 mph - N/A   Clear
6:53 PM 82.9 °F 84.0 °F 63.0 °F 51% 30.12 in 10.0 mi SW 3.5 mph - N/A   Partly Cloudy
7:53 PM 77.0 °F - 64.9 °F 66% 30.12 in 10.0 mi SW 4.6 mph - N/A   Clear
8:53 PM 72.0 °F - 66.0 °F 81% 30.13 in 10.0 mi Calm Calm - N/A   Clear
9:53 PM 71.1 °F - 64.9 °F 81% 30.15 in 10.0 mi South 3.5 mph - N/A   Clear
10:53 PM 70.0 °F - 64.9 °F 84% 30.16 in 9.0 mi Calm Calm - N/A   Clear
11:53 PM 70.0 °F - 64.9 °F 84% 30.16 in 8.0 mi Calm Calm - N/A   Clear